User: anonymous   Login
Location: Unspecified
(0.0000°N, 0.0000°E)
Time: 02:46:36
(UTC+00:00)
Language:

CHUBUSAT 3 - Orbit

View from above orbital plane
View from above orbital plane
View from above satellite
View from above satellite

Ground track
Ground track

The orbit data is extracted from the following two-line orbital elements,

1 41339U 16012C   17146.71915475 +.00000442 +00000-0 +27912-4 0  9993
2 41339 031.0114 247.7875 0013955 215.4242 144.5466 14.99936508069745
Epoch (UTC): 26 May 2017 17:15:34
Eccentricity: 0.0013955
inclination: 31.0114°
perigee height: 557 km
apogee height: 577 km
right ascension of ascending node: 247.7875°
argument of perigee: 215.4242°
revolutions per day: 14.99936508
mean anomaly at epoch: 144.5466°
orbit number at epoch: 6974

The dashed part of the orbit path shows where the satellite is in the earth's shadow,  

DLR